Location: Poughquag
(41.6090°N, 73.6820°W)
Time: 09:30:57
(UTC-05:00)

N. Korean satellite - Pass Details

Date: 24 January 2020
Orbit: 456 x 505 km, 97.2° (Epoch: 24 February)

Event Time Altitude Azimuth Distance (km) Brightness Sun altitude
Rises 18:02:10 0° 214° (SW) 2,463 11.0 -11.7°
Reaches altitude 10° 18:05:35 10° 251° (WSW) 1,595 10.7 -12.4°
Maximum altitude 18:06:36 11° 269° (W) 1,533 10.4 -12.5°
Drops below altitude 10° 18:07:37 10° 287° (WNW) 1,600 10.1 -12.7°
Sets 18:11:04 0° 324° (NW) 2,485 10.5 -13.4°
